Location: Powder Track
(41.8531°N, 72.3584°W)
Time: 17:37:39
(UTC+00:00)

Transit 4A - Pass Details

Date: 13 August 2021
Orbit: 871 x 974 km, 66.8° (Epoch: 19 September)

Event Time Altitude Azimuth Distance (km) Brightness Sun altitude
Rises 10:59:36 0° 328° (NNW) 3,486 10.7 10.6°
Reaches altitude 10° 11:02:05 10° 327° (NNW) 2,553 10.0 11.1°
Maximum altitude 11:07:59 76° 243° (WSW) 928 8.0 12.1°
Drops below altitude 10° 11:14:00 10° 158° (SSE) 2,603 10.5 13.2°
Sets 11:16:32 0° 157° (SSE) 3,558 11.2 13.7°
